map of OSI home
OSI - Airport
Location
City:  Osijek, Virovitica-Podravina, Croatia
ICAO:LDOS
IATA:OSI

Details
Type:Airport (Aerodrome, Airfield)
Latitude:4527'46"N (45.462667)
Longitude:1848'37"E (18.810156)
Datum:WGS 1984
Elevation:290 ft (88 m)
Variation:4.53E (WMM2015 magnetic declination)
0.11 annual change
Runways:1
Longest:8199 × 148 ft (2499 × 45 m), paved

Time
Time Zone:UTC+1 (DST+2)
Local Time:

Weather
METAR:LDOS 170730Z 23007KT 9999 FEW010 SCT030 20/19 Q1009
TAF:LDOS 170525Z 1706/1806 28006KT 9999 FEW030 TX26/1713Z TN18/1803Z PROB30
TEMPO 1706/1709 BKN010 PROB30
TEMPO 1713/1716 VRB15KT TSRA FEW035CB
BECMG 1717/1719 30012KT PROB30
TEMPO 1718/1721 VRB15KT TSRA FEW035CB

Related Locations
Nearby:
Farthest:CHT: 11680 mi / 18797 km
Waitangi [Tuuta], CIT, NZ

Find:

   beyond  
but within

Other Information
Maps:
NOTAMs:
Links:
Sources:

  
  • flag of Croatia
  • flag of Virovitica-Podravina
  

Sectional Chart

Flight Planning
at skyvector.com

Satellite Image

Google Maps Satellite view

 

Copyright © 2004-2018 Karl L. Swartz. All rights reserved.
The Great Circle Mapper name and logo are trademarks of the Great Circle Mapper.
All other trademarks mentioned herein belong to their respective owners.
Please see credits for attibutions and further copyright information.

  Follow gcmap on Facebook Follow gcmap on Twitter Follow gcmap on Google+ GCmap on LinkedIn

hCard Microformat

Geo Microformat